Epoch 2007 Aug. 8.0 TT = JDT 2454320.5
T 2007 July 20.72503 TT Williams
q 2.0088348 (2000.0) P Q
n 0.08191550 Peri. 42.51822 +0.21296563 -0.94588521
a 5.2507981 Node 37.22922 +0.75180558 -0.00141128
e 0.6174230 Incl. 23.87179 +0.62404648 +0.32449835
P 12.0
From 69 observations 2007 Oct. 12-2019 Sept. 8, mean residual 0".6.